This is the latest recevied weather packets stored in our database for station/object GJ7DNI-13. If no packets are shown the sender has not sent any weather packets the latest 10 day(s).
| Time | Temp. | Humidity | Pressure | Rain* | Wind** | Luminosity | Snow |
|---|---|---|---|---|---|---|---|
| 1777827001 | 17.22° C | 76% | 1008.4 hPa | 0 mm | - | 366 W/m² | - |
| 1777826701 | 16.67° C | 73% | 1008.3 hPa | 0 mm | - | 385 W/m² | - |
| 1777826401 | 16.67° C | 76% | 1008.3 hPa | 0 mm | - | 390 W/m² | - |
| 1777826101 | 17.22° C | 74% | 1008.3 hPa | 0 mm | - | 406 W/m² | - |
| 1777825801 | 16.67° C | 75% | 1008.4 hPa | 0 mm | - | 439 W/m² | - |
| 1777825501 | 16.67° C | 78% | 1008.4 hPa | 0 mm | - | 501 W/m² | - |
| 1777825201 | 17.22° C | 75% | 1008.4 hPa | 0 mm | - | 218 W/m² | - |
| 1777824901 | 17.22° C | 75% | 1008.4 hPa | 0 mm | - | 483 W/m² | - |
| 1777824601 | 16.67° C | 76% | 1008.4 hPa | 0 mm | - | 487 W/m² | - |
| 1777824301 | 17.22° C | 76% | 1008.3 hPa | 0 mm | - | 506 W/m² | - |
| 1777824001 | 16.67° C | 76% | 1008.3 hPa | 0 mm | - | 504 W/m² | - |
| 1777823701 | 17.22° C | 75% | 1008.3 hPa | 0 mm | - | 543 W/m² | - |
| 1777823401 | 17.78° C | 76% | 1008.3 hPa | 0 mm | - | 478 W/m² | - |
| 1777823101 | 17.22° C | 75% | 1008.4 hPa | 0 mm | - | 550 W/m² | - |
| 1777822801 | 17.22° C | 77% | 1008.3 hPa | 0 mm | - | 561 W/m² | - |
| 1777822501 | 17.22° C | 76% | 1008.3 hPa | 0 mm | - | 589 W/m² | - |
| 1777822201 | 17.22° C | 74% | 1008.3 hPa | 0 mm | - | 638 W/m² | - |
| 1777821901 | 17.22° C | 74% | 1008.2 hPa | 0 mm | - | 687 W/m² | - |
| 1777821601 | 17.22° C | 77% | 1008.3 hPa | 0 mm | - | 670 W/m² | - |
| 1777821301 | 16.67° C | 77% | 1008.3 hPa | 0 mm | - | 515 W/m² | - |
| 1777821001 | 16.67° C | 80% | 1008.4 hPa | 0 mm | - | 700 W/m² | - |
| 1777820701 | 16.67° C | 79% | 1008.5 hPa | 0 mm | - | 671 W/m² | - |
| 1777820401 | 16.67° C | 79% | 1008.6 hPa | 0 mm | - | 341 W/m² | - |
| 1777820101 | 16.11° C | 79% | 1008.5 hPa | 0 mm | - | 348 W/m² | - |
| 1777819801 | 16.11° C | 79% | 1008.6 hPa | 0.25 mm | - | 478 W/m² | - |
* Rain latest hour (hover to see other rain measurements)
** Current wind speed in m/s (hover to see current wind gust speed)